When you browse on this site, cookies collect data to enhance your experience and personalize the content and advertising you see.
Visit our Privacy Policy to learn more. By continuing to use the site, you agree to this use of cookies and data.

Tiempo cada hora Alcalá de Henares

Hoy, 19 Septiembre, Sábado

Tiempo Temperatura Precipitaciones Viento Presión Humedad
00:00 +17°C° 0.8 mm 7 mps 709 mmHg 76%
01:00 +17°C° 0.7 mm 7 mps 709 mmHg 77%
02:00 +17°C° 0.7 mm 7 mps 709 mmHg 79%
03:00 +16°C° 0.7 mm 7 mps 709 mmHg 80%
04:00 +16°C° 0.2 mm 7 mps 709 mmHg 81%
05:00 +16°C° 0.2 mm 6 mps 709 mmHg 81%
06:00 +16°C° 0.2 mm 6 mps 709 mmHg 81%
07:00 +16°C° 0.1 mm 6 mps 710 mmHg 77%
08:00 +17°C° 0.1 mm 7 mps 710 mmHg 74%
09:00 +18°C° 0.1 mm 7 mps 711 mmHg 70%
10:00 +20°C° 0.1 mm 7 mps 711 mmHg 65%
11:00 +21°C° 0.1 mm 7 mps 711 mmHg 61%
12:00 +22°C° 0.1 mm 8 mps 711 mmHg 56%
13:00 +22°C° 0 mm 8 mps 711 mmHg 54%
14:00 +22°C° 0 mm 8 mps 710 mmHg 52%
15:00 +23°C° 0 mm 8 mps 710 mmHg 49%
16:00 +22°C° 0 mm 7 mps 710 mmHg 51%
17:00 +22°C° 0 mm 6 mps 711 mmHg 53%
18:00 +21°C° 0 mm 5 mps 711 mmHg 55%
19:00 +21°C° 0 mm 5 mps 711 mmHg 57%
20:00 +21°C° 0 mm 4 mps 712 mmHg 58%
21:00 +20°C° 0 mm 4 mps 712 mmHg 60%
22:00 +20°C° 0 mm 3 mps 712 mmHg 62%
23:00 +20°C° 0 mm 3 mps 712 mmHg 64%

Mañana, 20 Septiembre, Domingo

Tiempo Temperatura Precipitaciones Viento Presión Humedad
00:00 +19°C° 0 mm 3 mps 712 mmHg 67%
01:00 +19°C° 0 mm 3 mps 712 mmHg 70%
02:00 +18°C° 0 mm 3 mps 711 mmHg 73%
03:00 +18°C° 0 mm 3 mps 711 mmHg 75%
04:00 +18°C° 0 mm 3 mps 711 mmHg 79%
05:00 +17°C° 0 mm 3 mps 711 mmHg 82%
06:00 +17°C° 0 mm 3 mps 711 mmHg 86%
07:00 +17°C° 0 mm 4 mps 711 mmHg 83%
08:00 +18°C° 0 mm 4 mps 711 mmHg 79%
09:00 +19°C° 0 mm 4 mps 712 mmHg 76%
10:00 +20°C° 0 mm 5 mps 712 mmHg 71%
11:00 +21°C° 0 mm 5 mps 712 mmHg 66%
12:00 +22°C° 0 mm 5 mps 712 mmHg 61%
13:00 +23°C° 0.1 mm 5 mps 712 mmHg 57%
14:00 +25°C° 0.1 mm 5 mps 711 mmHg 54%
15:00 +25°C° 0.1 mm 5 mps 711 mmHg 50%
16:00 +25°C° 0 mm 5 mps 711 mmHg 52%
17:00 +23°C° 0 mm 4 mps 711 mmHg 54%
18:00 +23°C° 0 mm 4 mps 711 mmHg 55%
19:00 +22°C° 0 mm 3 mps 711 mmHg 58%
20:00 +21°C° 0 mm 3 mps 712 mmHg 60%
21:00 +21°C° 0 mm 2 mps 712 mmHg 62%
22:00 +20°C° 0 mm 2 mps 712 mmHg 64%
23:00 +20°C° 0 mm 2 mps 712 mmHg 65%

Pasado mañana, 21 Septiembre, Lunes

Tiempo Temperatura Precipitaciones Viento Presión Humedad
00:00 +20°C° 0 mm 1 mps 712 mmHg 66%
01:00 +20°C° 0 mm 1 mps 712 mmHg 67%
02:00 +20°C° 0 mm 1 mps 712 mmHg 68%
03:00 +19°C° 0 mm 1 mps 712 mmHg 69%
04:00 +19°C° 0 mm 1 mps 711 mmHg 70%
05:00 +19°C° 0 mm 1 mps 711 mmHg 71%
06:00 +16°C° 0 mm 0 mps 711 mmHg 72%
07:00 +19°C° 0 mm 1 mps 712 mmHg 68%
08:00 +20°C° 0 mm 1 mps 712 mmHg 64%
09:00 +21°C° 0 mm 1 mps 712 mmHg 60%
10:00 +22°C° 0 mm 1 mps 712 mmHg 56%
11:00 +24°C° 0 mm 2 mps 712 mmHg 53%
12:00 +25°C° 0 mm 2 mps 712 mmHg 49%
13:00 +25°C° 0 mm 2 mps 711 mmHg 47%
14:00 +25°C° 0 mm 3 mps 711 mmHg 46%
15:00 +26°C° 0 mm 3 mps 711 mmHg 44%
16:00 +25°C° 0.1 mm 3 mps 711 mmHg 46%
17:00 +25°C° 0.1 mm 3 mps 710 mmHg 47%
18:00 +24°C° 0.1 mm 2 mps 710 mmHg 49%
19:00 +24°C° 0.3 mm 2 mps 710 mmHg 51%
20:00 +23°C° 0.3 mm 2 mps 711 mmHg 54%
21:00 +22°C° 0.3 mm 1 mps 711 mmHg 56%
22:00 +22°C° 0.2 mm 1 mps 710 mmHg 57%
23:00 +22°C° 0.2 mm 1 mps 710 mmHg 59%

22 Septiembre, Martes

Tiempo Temperatura Precipitaciones Viento Presión Humedad
00:00 +21°C° 0.2 mm 1 mps 710 mmHg 60%
01:00 +21°C° 0 mm 1 mps 709 mmHg 61%
02:00 +20°C° 0 mm 1 mps 709 mmHg 61%
03:00 +20°C° 0 mm 1 mps 709 mmHg 62%
04:00 +20°C° 0 mm 1 mps 709 mmHg 63%
05:00 +20°C° 0 mm 1 mps 709 mmHg 63%
06:00 +19°C° 0 mm 1 mps 709 mmHg 63%
07:00 +20°C° 0 mm 1 mps 709 mmHg 59%
08:00 +20°C° 0 mm 2 mps 709 mmHg 55%
09:00 +21°C° 0 mm 2 mps 709 mmHg 51%
10:00 +23°C° 0 mm 2 mps 709 mmHg 47%
11:00 +24°C° 0 mm 3 mps 709 mmHg 44%
12:00 +25°C° 0 mm 4 mps 709 mmHg 41%
13:00 +26°C° 0 mm 4 mps 709 mmHg 39%
14:00 +26°C° 0 mm 4 mps 708 mmHg 38%
15:00 +27°C° 0 mm 5 mps 708 mmHg 36%
16:00 +26°C° 0 mm 5 mps 708 mmHg 39%
17:00 +25°C° 0 mm 4 mps 707 mmHg 42%
18:00 +23°C° 0 mm 4 mps 707 mmHg 46%
19:00 +22°C° 0 mm 3 mps 708 mmHg 48%
20:00 +21°C° 0 mm 3 mps 708 mmHg 51%
21:00 +21°C° 0 mm 3 mps 708 mmHg 53%
22:00 +20°C° 0 mm 2 mps 708 mmHg 56%
23:00 +20°C° 0 mm 2 mps 708 mmHg 58%

23 Septiembre, Miércoles

Tiempo Temperatura Precipitaciones Viento Presión Humedad
00:00 +19°C° 0 mm 2 mps 708 mmHg 60%
01:00 +19°C° 0 mm 2 mps 707 mmHg 62%
02:00 +19°C° 0 mm 1 mps 707 mmHg 65%
03:00 +19°C° 0 mm 1 mps 707 mmHg 67%
04:00 +19°C° 0 mm 1 mps 707 mmHg 69%
05:00 +18°C° 0 mm 1 mps 707 mmHg 71%
06:00 +18°C° 0 mm 1 mps 707 mmHg 73%
07:00 +18°C° 0 mm 2 mps 707 mmHg 68%
08:00 +19°C° 0 mm 2 mps 708 mmHg 62%
09:00 +21°C° 0 mm 2 mps 708 mmHg 57%
10:00 +22°C° 0 mm 3 mps 708 mmHg 53%
11:00 +24°C° 0 mm 3 mps 708 mmHg 49%
12:00 +25°C° 0 mm 4 mps 707 mmHg 45%
13:00 +26°C° 0 mm 4 mps 707 mmHg 44%
14:00 +26°C° 0 mm 4 mps 707 mmHg 43%
15:00 +26°C° 0 mm 5 mps 706 mmHg 41%
16:00 +25°C° 0 mm 5 mps 706 mmHg 44%
17:00 +25°C° 0 mm 5 mps 706 mmHg 47%
18:00 +23°C° 0 mm 5 mps 705 mmHg 50%
19:00 +22°C° 0.1 mm 5 mps 706 mmHg 52%
20:00 +21°C° 0.1 mm 5 mps 706 mmHg 53%
21:00 +21°C° 0.1 mm 4 mps 706 mmHg 54%
22:00 +20°C° 0 mm 4 mps 706 mmHg 55%
23:00 +20°C° 0 mm 4 mps 706 mmHg 57%

24 Septiembre, Jueves

Tiempo Temperatura Precipitaciones Viento Presión Humedad
00:00 +19°C° 0 mm 4 mps 705 mmHg 58%
01:00 +17°C° 0 mm 5 mps 705 mmHg 61%
02:00 +17°C° 0 mm 5 mps 705 mmHg 64%
03:00 +16°C° 0 mm 5 mps 704 mmHg 67%
04:00 +15°C° 0 mm 5 mps 704 mmHg 71%
05:00 +15°C° 0 mm 5 mps 704 mmHg 74%
06:00 +14°C° 0 mm 5 mps 704 mmHg 77%
07:00 +15°C° 0 mm 6 mps 704 mmHg 74%
08:00 +16°C° 0 mm 6 mps 704 mmHg 70%
09:00 +17°C° 0 mm 7 mps 704 mmHg 67%
10:00 +18°C° 0 mm 7 mps 704 mmHg 62%
11:00 +18°C° 0 mm 8 mps 704 mmHg 57%
12:00 +20°C° 0 mm 8 mps 704 mmHg 52%
13:00 +20°C° 0 mm 8 mps 703 mmHg 49%
14:00 +21°C° 0 mm 8 mps 703 mmHg 46%
15:00 +21°C° 0 mm 8 mps 703 mmHg 43%
16:00 +19°C° 0 mm 9 mps 703 mmHg 45%
17:00 +18°C° 0 mm 9 mps 703 mmHg 47%
18:00 +17°C° 0 mm 9 mps 703 mmHg 49%
19:00 +16°C° 0 mm 9 mps 704 mmHg 48%
20:00 +15°C° 0 mm 9 mps 705 mmHg 48%
21:00 +13°C° 0 mm 8 mps 705 mmHg 47%
22:00 +12°C° 0 mm 8 mps 706 mmHg 49%
23:00 +11°C° 0 mm 7 mps 706 mmHg 51%
Mostrar más